BEARDSLEY LAKE (BRD)

Elevation: 3398' · STANISLAUS R basin · Operator: US Bureau of Reclamation

Provisional data, subject to change.
Query executed Tuesday at 4:38:24   clock

Select a sensor type for a plot of data.
Note: Reservoir Flows are daily averages.

Earlier

Date STORAGE    RES CHG    OUTFLOW    PPT INC   
 AF   AF   CFS   INCHES  
08/31/2014 43159 -100 196 0.00
09/01/2014 43196 37 197 0.00
09/02/2014 43381 185 195 0.00
09/03/2014 43333 -48 196 0.00
09/04/2014 43233 -100 195 0.00
09/05/2014 43164 -69 195 0.00
09/06/2014 43101 -63 195 0.00
09/07/2014 43025 -76 196 0.00
09/08/2014 42993 -32 195 0.03
09/09/2014 42935 -58 197 0.00
09/10/2014 42993 58 200 0.00
09/11/2014 42978 -15 199 0.00
09/12/2014 42978 0 200 0.00
09/13/2014 42866 -112 199 0.00
09/14/2014 42771 -95 199 0.00
09/15/2014 42670 -101 199 0.00
09/16/2014 42549 -121 199 0.00
09/17/2014 42343 -206 200 0.00
09/18/2014 42252 -91 200 0.00
09/19/2014 42231 -21 200 0.00
09/20/2014 42179 -52 200 0.00
09/21/2014 42085 -94 199 0.18
09/22/2014 42010 -75 199 0.00
09/23/2014 42080 70 199 0.00
09/24/2014 42174 94 199 0.00
09/25/2014 42200 26 200 0.00
09/26/2014 42252 52 199 0.37
09/27/2014 42358 106 199 0.02
09/28/2014 42443 85 200 0.41
09/29/2014 42343 -- 199 0.02
09/30/2014 -- -- -- --

Later | Latest

Warning! This data is preliminary and subject to revision.

Download Data Now Download Data Now | Show BRD Map | Plot BRD Data | 1 Month BRD Data | Real-Time BRD Data | BRD Info